Weather History for Centralia, IL

Change the Weather History Date:

Wednesday, September 5, 2012

  Actual Average (KSLO) Record (KSLO)
Temperature  
Mean Temperature 76 °F -  
Max Temperature 83 °F 83 °F 99 °F (1990)
Min Temperature 68 °F 60 °F 47 °F (1972)
Cooling Degree Days 10    
Growing Degree Days 26 (Base 50)    
Moisture  
Dew Point 71 °F    
Average Humidity 85    
Maximum Humidity 93    
Minimum Humidity 68    
Precipitation  
Precipitation 0.07 in - - ()
Sea Level Pressure  
Sea Level Pressure 29.86 in    
Wind  
Wind Speed 3 mph (SE)    
Max Wind Speed 18 mph    
Max Gust Speed 29 mph    
Visibility 8 miles    
Events Rain , Thunderstorm    
Averages and records for this station are not official NWS values.
T = Trace of Precipitation, MM = Missing Value Source: NWS Daily Summary

Daily Weather History Graph

Daily Weather History Graph

Search for Another Location

Airport:

Trip Planner

Search our weather history database for the weather conditions in past years. The results will help you decide how hot, cold, wet, or windy it might be!

Date:

Astronomy

Sep. 05, 2012 Rise Set
Actual Time 6:29 AM CDT 7:19 PM CDT
Civil Twilight 6:02 AM CDT 7:46 PM CDT
Nautical Twilight 5:30 AM CDT 8:18 PM CDT
Astronomical Twilight 4:57 AM CDT 8:50 PM CDT
Moon 9:54 PM CDT (9/5) 11:28 AM CDT (9/5)
Length of Visible Light 13h 43m
Length of Day
12h 49m
Waning Gibbous, 76% of the Moon is Illuminated
Sep 5
Waning Gibbous
Sep 8
Last Quarter
Sep 15
New
Sep 22
First Quarter
Sep 29
Full

Hourly Weather History & Observations

Time (CDT) Temp. Heat Index Dew Point Humidity Pressure Visibility Wind Dir Wind Speed Gust Speed Precip Events Conditions
12:15 AM 73.6 °F - 71.2 °F 92% 29.85 in 7.0 mi Calm Calm - N/A   Clear
12:35 AM 74.1 °F - 71.6 °F 92% 29.85 in 5.0 mi Calm Calm - N/A   Clear
12:55 AM 75.2 °F - 72.5 °F 91% 29.85 in 7.0 mi SE 3.5 mph - N/A   Clear
1:15 AM 74.7 °F - 71.4 °F 90% 29.85 in 7.0 mi Calm Calm - N/A   Clear
1:35 AM 74.5 °F - 71.6 °F 91% 29.84 in 10.0 mi Calm Calm - N/A   Clear
1:55 AM 74.3 °F - 71.6 °F 91% 29.84 in 7.0 mi Calm Calm - N/A   Clear
2:15 AM 73.4 °F - 70.9 °F 92% 29.84 in 7.0 mi Calm Calm - N/A   Clear
2:35 AM 73.9 °F - 71.6 °F 92% 29.84 in 7.0 mi Calm Calm - N/A   Clear
2:55 AM 74.5 °F - 71.6 °F 91% 29.84 in 7.0 mi Calm Calm - N/A   Clear
3:15 AM 74.5 °F - 71.6 °F 91% 29.85 in 7.0 mi Calm Calm - N/A   Clear
3:35 AM 74.3 °F - 71.6 °F 91% 29.84 in 7.0 mi Calm Calm - N/A   Clear
3:55 AM 74.3 °F - 71.6 °F 91% 29.85 in 7.0 mi SSE 5.8 mph - N/A   Scattered Clouds
4:15 AM 75.6 °F - 72.1 °F 89% 29.85 in 7.0 mi South 4.6 mph - N/A   Scattered Clouds
4:35 AM 75.2 °F - 71.8 °F 89% 29.85 in 7.0 mi SSE 4.6 mph - N/A   Clear
4:55 AM 74.7 °F - 71.6 °F 90% 29.85 in 7.0 mi SSE 5.8 mph - N/A   Clear
5:15 AM 75.2 °F - 71.4 °F 88% 29.85 in 7.0 mi Calm Calm - N/A   Clear
5:35 AM 74.5 °F - 70.9 °F 88% 29.86 in 7.0 mi Calm Calm - N/A   Clear
5:55 AM 73.6 °F - 70.9 °F 91% 29.85 in 7.0 mi Calm Calm - N/A   Scattered Clouds
6:15 AM 74.5 °F - 71.1 °F 89% 29.85 in 7.0 mi Calm Calm - N/A   Mostly Cloudy
6:35 AM 74.3 °F - 71.6 °F 91% 29.86 in 7.0 mi East 3.5 mph - N/A   Overcast
6:55 AM 74.8 °F - 71.8 °F 90% 29.87 in 5.0 mi Calm Calm - N/A   Overcast
7:15 AM 75.6 °F - 72.5 °F 90% 29.87 in 5.0 mi ESE 3.5 mph - N/A   Overcast
7:35 AM 76.3 °F - 72.9 °F 89% 29.85 in 5.0 mi SSE 5.8 mph - N/A   Scattered Clouds
7:55 AM 78.1 °F - 73.4 °F 85% 29.85 in 7.0 mi SSE 6.9 mph - N/A   Clear
8:15 AM 79.3 °F - 73.4 °F 82% 29.85 in 7.0 mi SSE 6.9 mph - N/A Thunderstorm Clear
8:35 AM 78.8 °F - 72.9 °F 82% 29.84 in 7.0 mi SSE 6.9 mph - N/A Thunderstorm Scattered Clouds
8:55 AM 78.3 °F - 73.0 °F 84% 29.84 in 7.0 mi South 8.1 mph - N/A   Scattered Clouds
9:15 AM 78.1 °F - 73.0 °F 84% 29.84 in 7.0 mi South 5.8 mph - N/A   Scattered Clouds
9:35 AM 78.8 °F - 72.7 °F 81% 29.85 in 10.0 mi SSW 8.1 mph - N/A Thunderstorm Thunderstorm
9:55 AM 78.8 °F - 71.6 °F 78% 29.85 in 10.0 mi SSW 6.9 mph - N/A   Clear
10:15 AM 79.9 °F - 71.1 °F 74% 29.87 in 10.0 mi West 4.6 mph - N/A   Clear
10:35 AM 74.7 °F - 65.7 °F 73% 29.92 in 7.0 mi North 18.4 mph 28.8 mph N/A Thunderstorm Thunderstorm
10:55 AM 72.0 °F - 65.8 °F 81% 29.94 in 10.0 mi NNE 10.4 mph 21.9 mph N/A Rain , Thunderstorm Thunderstorms and Rain
11:15 AM 69.8 °F - 66.6 °F 89% 29.96 in 10.0 mi North 12.7 mph 17.3 mph 0.02 in Rain , Thunderstorm Light Thunderstorms and Rain
11:35 AM 69.1 °F - 66.2 °F 91% 29.95 in 10.0 mi NNE 10.4 mph 16.1 mph 0.03 in Rain , Thunderstorm Light Thunderstorms and Rain
11:55 AM 68.9 °F - 66.2 °F 91% 29.92 in 10.0 mi NE 10.4 mph - 0.03 in Thunderstorm Thunderstorm
12:15 PM 68.5 °F - 65.7 °F 90% 29.90 in 10.0 mi ENE 12.7 mph 16.1 mph N/A Rain Light Rain
12:35 PM 69.6 °F - 66.7 °F 91% 29.92 in 7.0 mi ENE 5.8 mph - 0.02 in Rain Light Rain
12:55 PM 69.3 °F - 66.2 °F 90% 29.92 in 10.0 mi ENE 5.8 mph - 0.02 in   Scattered Clouds
1:15 PM 69.4 °F - 66.6 °F 91% 29.91 in 7.0 mi SE 4.6 mph - 0.01 in Rain Rain
1:35 PM 69.8 °F - 66.9 °F 91% 29.91 in 10.0 mi SE 8.1 mph - 0.02 in Rain Light Rain
1:55 PM 71.8 °F - 68.5 °F 89% 29.89 in 10.0 mi ESE 4.6 mph - 0.02 in   Scattered Clouds
2:15 PM 73.9 °F - 69.4 °F 86% 29.87 in 10.0 mi ESE 4.6 mph - N/A   Clear
2:35 PM 75.0 °F - 70.0 °F 84% 29.86 in 10.0 mi SE 3.5 mph - N/A   Scattered Clouds
2:55 PM 79.5 °F - 72.0 °F 78% 29.84 in 10.0 mi ESE 4.6 mph - N/A   Scattered Clouds
3:15 PM 81.0 °F 84.9 °F 71.1 °F 72% 29.83 in 10.0 mi SE 8.1 mph - N/A   Clear
3:35 PM 80.1 °F 83.3 °F 70.3 °F 72% 29.83 in 10.0 mi South 6.9 mph - N/A   Clear
3:55 PM 79.7 °F - 70.9 °F 74% 29.80 in 10.0 mi SSE 9.2 mph - N/A   Clear
4:15 PM 80.2 °F 84.0 °F 71.8 °F 75% 29.82 in 10.0 mi SSW 8.1 mph - N/A   Clear
4:35 PM 82.0 °F 87.0 °F 72.1 °F 72% 29.81 in 10.0 mi SSW 9.2 mph - N/A   Clear
4:55 PM 82.6 °F 87.6 °F 72.0 °F 70% 29.81 in 10.0 mi SSW 4.6 mph - N/A   Clear
5:15 PM 82.6 °F 87.8 °F 72.5 °F 71% 29.80 in 10.0 mi SW 5.8 mph - N/A   Clear
5:35 PM 82.8 °F 87.7 °F 71.8 °F 69% 29.80 in 10.0 mi SW 5.8 mph - N/A   Clear
5:55 PM 83.3 °F 88.4 °F 72.0 °F 68% 29.81 in 10.0 mi WSW 5.8 mph - N/A   Clear
6:15 PM 82.6 °F 87.6 °F 71.8 °F 70% 29.82 in 10.0 mi WSW 5.8 mph - N/A   Clear
6:35 PM 81.5 °F 86.3 °F 72.3 °F 74% 29.83 in 10.0 mi Calm Calm - N/A   Clear
6:55 PM 81.0 °F 85.6 °F 72.7 °F 76% 29.83 in 10.0 mi Calm Calm - N/A   Clear
7:15 PM 79.7 °F - 71.6 °F 76% 29.84 in 10.0 mi Calm Calm - N/A   Clear
7:35 PM 76.3 °F - 71.6 °F 85% 29.84 in 10.0 mi Calm Calm - N/A   Clear
7:55 PM 74.7 °F - 71.4 °F 90% 29.85 in 10.0 mi Calm Calm - N/A   Clear
8:15 PM 74.3 °F - 71.2 °F 90% 29.87 in 10.0 mi ENE 5.8 mph - N/A   Clear
8:35 PM 75.2 °F - 71.8 °F 89% 29.87 in 10.0 mi ENE 3.5 mph - N/A   Clear
8:55 PM 74.7 °F - 71.6 °F 90% 29.88 in 10.0 mi Calm Calm - N/A   Clear
9:15 PM 73.8 °F - 70.9 °F 91% 29.88 in 10.0 mi Calm Calm - N/A   Clear
9:35 PM 74.3 °F - 71.1 °F 90% 29.89 in 10.0 mi NE 3.5 mph - N/A   Clear
9:55 PM 73.6 °F - 70.7 °F 91% 29.90 in 7.0 mi East 4.6 mph - N/A   Clear
10:15 PM 73.4 °F - 70.7 °F 91% 29.89 in 10.0 mi Calm Calm - N/A   Clear
10:35 PM 72.5 °F - 70.0 °F 92% 29.90 in 7.0 mi Calm Calm - N/A   Scattered Clouds
10:55 PM 72.9 °F - 70.5 °F 92% 29.90 in 7.0 mi Calm Calm - N/A   Scattered Clouds
11:15 PM 72.0 °F - 69.8 °F 93% 29.90 in 5.0 mi Calm Calm - N/A   Clear
11:35 PM 71.6 °F - 69.4 °F 93% 29.90 in 4.0 mi East 3.5 mph - N/A   Clear
11:55 PM 71.6 °F - 69.3 °F 92% 29.90 in 4.0 mi Calm Calm - N/A   Clear